| time (UTC) | temp F | wind direction | speed MPH | gust MPH | rain 1hr in | rain 24hr in | rain mn in | humidity % | barometer mb |
| 20260509151629 | 65 | 244 | 1.0 | 9.0 | 0.00 | 0.00 | 0.00 | 61 | 1011.8 |
| 20260509151118 | 65 | 199 | 4.0 | 9.0 | 0.00 | 0.00 | 0.00 | 59 | 1011.8 |
| 20260509150624 | 64 | 303 | 1.0 | 5.0 | 0.00 | 0.00 | 0.00 | 62 | 1011.9 |
| 20260509150133 | 64 | 186 | 2.0 | 7.0 | 0.00 | 0.00 | 0.00 | 61 | 1012.0 |
| 20260509145622 | 63 | 174 | 2.0 | 7.0 | 0.00 | 0.00 | 0.00 | 60 | 1012.2 |
| 20260509145131 | 63 | 147 | 1.0 | 6.0 | 0.00 | 0.00 | 0.00 | 61 | 1012.2 |
| 20260509144619 | 63 | 39 | 2.0 | 5.0 | 0.00 | 0.00 | 0.00 | 62 | 1012.3 |
| 20260509144128 | 63 | 293 | 0.0 | 7.0 | 0.00 | 0.00 | 0.00 | 63 | 1012.3 |
| 20260509143617 | 62 | 239 | 2.0 | 7.0 | 0.00 | 0.00 | 0.00 | 62 | 1012.4 |
| 20260509143126 | 63 | 203 | 2.0 | 5.0 | 0.00 | 0.00 | 0.00 | 62 | 1012.3 |
| 20260509142615 | 62 | 170 | 1.0 | 4.0 | 0.00 | 0.00 | 0.00 | 62 | 1012.3 |
| 20260509142125 | 62 | 165 | 1.0 | 3.0 | 0.00 | 0.00 | 0.00 | 62 | 1012.1 |
| 20260509141613 | 62 | 288 | 1.0 | 7.0 | 0.00 | 0.00 | 0.00 | 61 | 1012.2 |
| 20260509141122 | 62 | 195 | 3.0 | 7.0 | 0.00 | 0.00 | 0.00 | 61 | 1012.2 |
| 20260509140630 | 62 | 120 | 0.0 | 10.0 | 0.00 | 0.00 | 0.00 | 60 | 1012.1 |
| 20260509140119 | 63 | 313 | 1.0 | 10.0 | 0.00 | 0.00 | 0.00 | 59 | 1012.2 |
| 20260509135629 | 63 | 305 | 3.0 | 9.0 | 0.00 | 0.00 | 0.00 | 60 | 1012.2 |
| 20260509135138 | 63 | 222 | 4.0 | 6.0 | 0.00 | 0.00 | 0.00 | 60 | 1012.1 |
| 20260509134625 | 63 | 165 | 1.0 | 4.0 | 0.00 | 0.00 | 0.00 | 59 | 1012.1 |
| 20260509134113 | 63 | 321 | 1.0 | 4.0 | 0.00 | 0.00 | 0.00 | 60 | 1012.1 |
| 20260509133622 | 62 | 282 | 1.0 | 9.0 | 0.00 | 0.00 | 0.00 | 59 | 1012.2 |
| 20260509133129 | 62 | 190 | 2.0 | 9.0 | 0.00 | 0.00 | 0.00 | 59 | 1012.2 |
| 20260509132635 | 62 | 214 | 1.0 | 12.0 | 0.00 | 0.00 | 0.00 | 59 | 1012.1 |
| 20260509132124 | 62 | 314 | 2.0 | 12.0 | 0.00 | 0.00 | 0.00 | 58 | 1012.2 |
| 20260509131653 | 62 | 307 | 2.0 | 10.0 | 0.00 | 0.00 | 0.00 | 58 | 1012.2 |
| 20260509131119 | 62 | 317 | 3.0 | 9.0 | 0.00 | 0.00 | 0.00 | 58 | 1012.0 |
| 20260509130628 | 62 | 113 | 3.0 | 7.0 | 0.00 | 0.00 | 0.00 | 59 | 1012.0 |
| 20260509130117 | 63 | 247 | 3.0 | 7.0 | 0.00 | 0.00 | 0.00 | 58 | 1012.0 |
| 20260509125625 | 63 | 303 | 2.0 | 7.0 | 0.00 | 0.00 | 0.00 | 58 | 1012.1 |
| 20260509125114 | 62 | 316 | 3.0 | 6.0 | 0.00 | 0.00 | 0.00 | 59 | 1012.0 |
| 20260509124622 | 61 | 197 | 1.0 | 7.0 | 0.00 | 0.00 | 0.00 | 61 | 1012.0 |
| 20260509124128 | 60 | 265 | 1.0 | 7.0 | 0.00 | 0.00 | 0.00 | 61 | 1012.1 |
| 20260509123616 | 60 | 86 | 1.0 | 4.0 | 0.00 | 0.00 | 0.00 | 60 | 1012.1 |
| 20260509123124 | 60 | 305 | 1.0 | 7.0 | 0.00 | 0.00 | 0.00 | 61 | 1012.1 |
| 20260509122653 | 59 | 330 | 2.0 | 7.0 | 0.00 | 0.00 | 0.00 | 61 | 1012.1 |
| 20260509122121 | 59 | 296 | 1.0 | 7.0 | 0.00 | 0.00 | 0.00 | 61 | 1012.1 |
| 20260509121629 | 59 | 315 | 2.0 | 8.0 | 0.00 | 0.00 | 0.00 | 61 | 1012.1 |
| 20260509121118 | 59 | 203 | 3.0 | 9.0 | 0.00 | 0.00 | 0.00 | 62 | 1012.0 |
| 20260509120628 | 59 | 178 | 4.0 | 9.0 | 0.00 | 0.00 | 0.00 | 62 | 1012.0 |
| 20260509120117 | 58 | 189 | 1.0 | 7.0 | 0.00 | 0.00 | 0.00 | 63 | 1012.0 |
| 20260509115622 | 58 | 259 | 3.0 | 10.0 | 0.00 | 0.00 | 0.00 | 62 | 1011.9 |
| 20260509115132 | 58 | 248 | 1.0 | 10.0 | 0.00 | 0.00 | 0.00 | 62 | 1011.8 |
| 20260509114620 | 58 | 247 | 3.0 | 9.0 | 0.00 | 0.00 | 0.00 | 62 | 1012.0 |
| 20260509114128 | 58 | 211 | 2.0 | 6.0 | 0.00 | 0.00 | 0.00 | 62 | 1011.8 |
| 20260509113636 | 58 | 149 | 1.0 | 4.0 | 0.00 | 0.00 | 0.00 | 61 | 1011.9 |
| 20260509113124 | 58 | 185 | 1.0 | 4.0 | 0.00 | 0.00 | 0.00 | 61 | 1011.8 |
| 20260509112614 | 58 | 207 | 0.0 | 10.0 | 0.00 | 0.00 | 0.00 | 61 | 1011.8 |
| 20260509112122 | 58 | 212 | 2.0 | 10.0 | 0.00 | 0.00 | 0.00 | 61 | 1011.7 |
| 20260509111631 | 57 | 230 | 3.0 | 9.0 | 0.00 | 0.00 | 0.00 | 61 | 1011.7 |
| 20260509111140 | 57 | 183 | 1.0 | 8.0 | 0.00 | 0.00 | 0.00 | 61 | 1011.7 |
| 20260509110629 | 57 | 51 | 2.0 | 9.0 | 0.00 | 0.00 | 0.00 | 61 | 1011.8 |
| 20260509110117 | 57 | 258 | 5.0 | 9.0 | 0.00 | 0.00 | 0.00 | 60 | 1011.8 |
| 20260509105646 | 57 | 95 | 1.0 | 9.0 | 0.00 | 0.00 | 0.00 | 60 | 1011.6 |
| 20260509105133 | 58 | 198 | 1.0 | 4.0 | 0.00 | 0.00 | 0.00 | 59 | 1011.6 |
| 20260509104623 | 57 | 228 | 0.0 | 4.0 | 0.00 | 0.00 | 0.00 | 59 | 1011.6 |
| 20260509104127 | 57 | 205 | 1.0 | 4.0 | 0.00 | 0.00 | 0.00 | 59 | 1011.5 |
| 20260509103616 | 57 | 170 | 0.0 | 5.0 | 0.00 | 0.00 | 0.00 | 59 | 1011.3 |
| 20260509103122 | 57 | 153 | 1.0 | 6.0 | 0.00 | 0.00 | 0.00 | 59 | 1011.4 |
| 20260509102630 | 57 | 235 | 1.0 | 7.0 | 0.00 | 0.00 | 0.00 | 59 | 1011.3 |
| 20260509102119 | 57 | 211 | 1.0 | 3.0 | 0.00 | 0.00 | 0.00 | 59 | 1011.5 |
| 20260509101628 | 57 | 234 | 1.0 | 3.0 | 0.00 | 0.00 | 0.00 | 59 | 1011.5 |
| 20260509101117 | 57 | 234 | 0.0 | 3.0 | 0.00 | 0.00 | 0.00 | 60 | 1011.4 |
| 20260509100625 | 57 | 250 | 1.0 | 4.0 | 0.00 | 0.00 | 0.00 | 59 | 1011.3 |
| 20260509100115 | 57 | 245 | 1.0 | 4.0 | 0.00 | 0.00 | 0.00 | 60 | 1011.3 |
| 20260509095622 | 57 | 276 | 0.0 | 2.0 | 0.00 | 0.00 | 0.00 | 60 | 1011.3 |
| 20260509095131 | 57 | 313 | 0.0 | 2.0 | 0.00 | 0.00 | 0.00 | 59 | 1011.2 |
| 20260509094619 | 57 | 299 | 0.0 | 4.0 | 0.00 | 0.00 | 0.00 | 60 | 1011.4 |
| 20260509094128 | 57 | 278 | 0.0 | 6.0 | 0.00 | 0.00 | 0.00 | 59 | 1011.3 |
| 20260509093616 | 57 | 281 | 1.0 | 6.0 | 0.00 | 0.00 | 0.00 | 59 | 1011.4 |
| 20260509093127 | 57 | 288 | 1.0 | 4.0 | 0.00 | 0.00 | 0.00 | 60 | 1011.4 |
| 20260509092616 | 57 | 349 | 0.0 | 4.0 | 0.00 | 0.00 | 0.00 | 60 | 1011.5 |
| 20260509092125 | 57 | 211 | 2.0 | 4.0 | 0.00 | 0.00 | 0.00 | 60 | 1011.5 |
| 20260509091615 | 57 | 243 | 0.0 | 3.0 | 0.00 | 0.00 | 0.00 | 60 | 1011.5 |
| 20260509091123 | 57 | 246 | 1.0 | 4.0 | 0.00 | 0.00 | 0.00 | 60 | 1011.5 |
| 20260509090649 | 57 | 295 | 1.0 | 4.0 | 0.00 | 0.00 | 0.00 | 60 | 1011.5 |
| 20260509090116 | 57 | 268 | 0.0 | 2.0 | 0.00 | 0.00 | 0.00 | 61 | 1011.6 |
| 20260509085624 | 57 | 311 | 0.0 | 3.0 | 0.00 | 0.00 | 0.00 | 60 | 1011.6 |
| 20260509085114 | 57 | 293 | 1.0 | 3.0 | 0.00 | 0.00 | 0.00 | 61 | 1011.6 |
| 20260509084622 | 57 | 214 | 0.0 | 3.0 | 0.00 | 0.00 | 0.00 | 61 | 1011.8 |
| 20260509084131 | 57 | 259 | 0.0 | 3.0 | 0.00 | 0.00 | 0.00 | 61 | 1011.7 |
| 20260509083619 | 57 | 223 | 1.0 | 3.0 | 0.00 | 0.00 | 0.00 | 61 | 1011.8 |
| 20260509083128 | 57 | 226 | 1.0 | 3.0 | 0.00 | 0.00 | 0.00 | 61 | 1011.8 |
| 20260509082618 | 57 | 263 | 0.0 | 3.0 | 0.00 | 0.00 | 0.00 | 61 | 1012.0 |
| 20260509082127 | 57 | 278 | 1.0 | 3.0 | 0.00 | 0.00 | 0.00 | 61 | 1012.0 |
| 20260509081616 | 57 | 261 | 0.0 | 2.0 | 0.00 | 0.00 | 0.00 | 61 | 1012.2 |
| 20260509081125 | 57 | 247 | 0.0 | 3.0 | 0.00 | 0.00 | 0.00 | 61 | 1012.2 |
| 20260509080654 | 57 | 249 | 0.0 | 4.0 | 0.00 | 0.00 | 0.00 | 61 | 1012.2 |
| 20260509080122 | 57 | 261 | 0.0 | 4.0 | 0.00 | 0.00 | 0.00 | 61 | 1012.2 |
| 20260509075651 | 56 | 212 | 0.0 | 3.0 | 0.00 | 0.00 | 0.00 | 61 | 1012.3 |
| 20260509075139 | 57 | 274 | 1.0 | 3.0 | 0.00 | 0.00 | 0.00 | 61 | 1012.3 |
| 20260509074626 | 57 | 332 | 0.0 | 2.0 | 0.00 | 0.00 | 0.00 | 61 | 1012.3 |
| 20260509074116 | 57 | 293 | 0.0 | 4.0 | 0.00 | 0.00 | 0.00 | 60 | 1012.1 |
| 20260509073620 | 56 | 275 | 1.0 | 5.0 | 0.00 | 0.00 | 0.00 | 60 | 1012.2 |
| 20260509073129 | 56 | 232 | 1.0 | 5.0 | 0.00 | 0.00 | 0.00 | 61 | 1012.1 |
| 20260509072617 | 56 | 262 | 0.0 | 9.0 | 0.00 | 0.00 | 0.00 | 60 | 1012.3 |
| 20260509072146 | 56 | 266 | 4.0 | 9.0 | 0.00 | 0.00 | 0.00 | 61 | 1012.2 |
| 20260509071614 | 56 | 64 | 1.0 | 6.0 | 0.00 | 0.00 | 0.00 | 61 | 1012.2 |
| 20260509071123 | 56 | 197 | 3.0 | 6.0 | 0.00 | 0.00 | 0.00 | 61 | 1012.3 |
| 20260509070631 | 56 | 226 | 2.0 | 5.0 | 0.00 | 0.00 | 0.00 | 61 | 1012.2 |
| 20260509070120 | 56 | 241 | 0.0 | 4.0 | 0.00 | 0.00 | 0.00 | 61 | 1012.2 |
| 20260509065649 | 56 | 243 | 2.0 | 4.0 | 0.00 | 0.00 | 0.00 | 62 | 1012.2 |
| 20260509065116 | 56 | 229 | 2.0 | 3.0 | 0.00 | 0.00 | 0.00 | 62 | 1012.2 |
| 20260509064626 | 56 | 277 | 0.0 | 3.0 | 0.00 | 0.00 | 0.00 | 62 | 1012.3 |
| 20260509064154 | 55 | 273 | 0.0 | 3.0 | 0.00 | 0.00 | 0.00 | 62 | 1012.3 |
| 20260509063643 | 55 | 242 | 1.0 | 3.0 | 0.00 | 0.00 | 0.00 | 62 | 1012.4 |
| 20260509063131 | 55 | 249 | 1.0 | 3.0 | 0.00 | 0.00 | 0.00 | 62 | 1012.4 |
| 20260509062636 | 55 | 189 | 0.0 | 4.0 | 0.00 | 0.00 | 0.00 | 62 | 1012.6 |
| 20260509062123 | 55 | 222 | 0.0 | 4.0 | 0.00 | 0.00 | 0.00 | 63 | 1012.5 |
| 20260509061633 | 55 | 257 | 0.0 | 3.0 | 0.00 | 0.00 | 0.00 | 63 | 1012.6 |
| 20260509061121 | 55 | 248 | 0.0 | 3.0 | 0.00 | 0.00 | 0.00 | 62 | 1012.6 |
| 20260509060630 | 55 | 234 | 0.0 | 3.0 | 0.00 | 0.00 | 0.00 | 62 | 1012.7 |
| 20260509060120 | 55 | 251 | 0.0 | 3.0 | 0.00 | 0.00 | 0.00 | 61 | 1012.6 |
| 20260509055629 | 55 | 248 | 0.0 | 3.0 | 0.00 | 0.00 | 0.00 | 61 | 1012.7 |
| 20260509055119 | 55 | 232 | 1.0 | 3.0 | 0.00 | 0.00 | 0.00 | 62 | 1012.7 |
| 20260509054627 | 54 | 226 | 0.0 | 2.0 | 0.00 | 0.00 | 0.00 | 63 | 1012.7 |
| 20260509054135 | 54 | 230 | 0.0 | 0.0 | 0.00 | 0.00 | 0.00 | 63 | 1012.8 |
| 20260509053624 | 54 | 205 | 0.0 | 0.0 | 0.00 | 0.00 | 0.00 | 63 | 1012.8 |
| 20260509053131 | 54 | 203 | 0.0 | 0.0 | 0.00 | 0.00 | 0.00 | 63 | 1012.8 |
| 20260509052619 | 55 | 222 | 0.0 | 0.0 | 0.00 | 0.00 | 0.00 | 63 | 1012.8 |
| 20260509052128 | 55 | 241 | 0.0 | 0.0 | 0.00 | 0.00 | 0.00 | 62 | 1012.9 |
| 20260509051617 | 54 | 241 | 0.0 | 0.0 | 0.00 | 0.00 | 0.00 | 62 | 1012.9 |
| 20260509051126 | 55 | 251 | 0.0 | 0.0 | 0.00 | 0.00 | 0.00 | 61 | 1012.9 |
| 20260509050615 | 55 | 251 | 0.0 | 0.0 | 0.00 | 0.00 | 0.00 | 61 | 1012.9 |
| 20260509050124 | 55 | 232 | 0.0 | 4.0 | 0.00 | 0.00 | 0.00 | 61 | 1012.8 |
| 20260509045633 | 55 | 227 | 0.0 | 4.0 | 0.00 | 0.00 | 0.00 | 61 | 1012.9 |
| 20260509045137 | 55 | 216 | 1.0 | 5.0 | 0.00 | 0.00 | 0.00 | 61 | 1012.8 |
| 20260509044644 | 55 | 238 | 2.0 | 5.0 | 0.00 | 0.00 | 0.00 | 61 | 1012.8 |
| 20260509044153 | 55 | 250 | 0.0 | 1.0 | 0.00 | 0.00 | 0.00 | 61 | 1012.9 |
| 20260509043622 | 55 | 224 | 0.0 | 1.0 | 0.00 | 0.00 | 0.00 | 60 | 1013.0 |
| 20260509043130 | 56 | 64 | 0.0 | 2.0 | 0.00 | 0.00 | 0.00 | 60 | 1012.9 |
| 20260509042619 | 56 | 249 | 0.0 | 2.0 | 0.00 | 0.00 | 0.00 | 60 | 1012.9 |
| 20260509042128 | 56 | 191 | 0.0 | 3.0 | 0.00 | 0.00 | 0.00 | 60 | 1012.9 |
| 20260509041617 | 56 | 239 | 1.0 | 3.0 | 0.00 | 0.00 | 0.00 | 61 | 1013.0 |
| 20260509041145 | 56 | 176 | 0.0 | 2.0 | 0.00 | 0.00 | 0.00 | 61 | 1013.0 |
| 20260509040615 | 56 | 209 | 0.0 | 4.0 | 0.00 | 0.00 | 0.00 | 61 | 1013.0 |
| 20260509040123 | 56 | 202 | 1.0 | 4.0 | 0.00 | 0.00 | 0.00 | 62 | 1013.0 |
| 20260509035629 | 55 | 165 | 0.0 | 1.0 | 0.00 | 0.00 | 0.00 | 63 | 1013.0 |
| 20260509035118 | 56 | 170 | 0.0 | 0.0 | 0.00 | 0.00 | 0.00 | 63 | 1013.0 |
| 20260509034626 | 56 | 170 | 0.0 | 0.0 | 0.00 | 0.00 | 0.00 | 63 | 1013.0 |
| 20260509034116 | 56 | 170 | 0.0 | 0.0 | 0.00 | 0.00 | 0.00 | 63 | 1013.1 |
| 20260509033623 | 56 | 170 | 0.0 | 0.0 | 0.00 | 0.00 | 0.00 | 63 | 1013.0 |
| 20260509033114 | 56 | 170 | 0.0 | 2.0 | 0.00 | 0.00 | 0.00 | 62 | 1013.0 |
| 20260509032619 | 56 | 226 | 0.0 | 2.0 | 0.00 | 0.00 | 0.00 | 63 | 1013.2 |
| 20260509032128 | 56 | 188 | 0.0 | 0.0 | 0.00 | 0.00 | 0.00 | 64 | 1013.0 |
| 20260509031616 | 56 | 188 | 0.0 | 0.0 | 0.00 | 0.00 | 0.00 | 63 | 1013.1 |
| 20260509031125 | 56 | 188 | 0.0 | 0.0 | 0.00 | 0.00 | 0.00 | 62 | 1013.1 |
| 20260509030615 | 57 | 188 | 0.0 | 0.0 | 0.00 | 0.00 | 0.00 | 62 | 1013.2 |
| 20260509030124 | 57 | 208 | 0.0 | 0.0 | 0.00 | 0.00 | 0.00 | 63 | 1013.2 |
| 20260509025613 | 57 | 211 | 0.0 | 0.0 | 0.00 | 0.00 | 0.00 | 62 | 1013.3 |
| 20260509025142 | 58 | 211 | 0.0 | 0.0 | 0.00 | 0.00 | 0.00 | 60 | 1013.3 |
| 20260509024629 | 58 | 213 | 0.0 | 0.0 | 0.00 | 0.00 | 0.00 | 59 | 1013.2 |
| 20260509024119 | 58 | 177 | 0.0 | 0.0 | 0.00 | 0.00 | 0.00 | 58 | 1013.2 |
| 20260509023627 | 58 | 177 | 0.0 | 0.0 | 0.00 | 0.00 | 0.00 | 58 | 1013.2 |
| 20260509023117 | 59 | 184 | 0.0 | 0.0 | 0.00 | 0.00 | 0.00 | 57 | 1013.3 |
| 20260509022624 | 59 | 195 | 0.0 | 0.0 | 0.00 | 0.00 | 0.00 | 56 | 1013.3 |
| 20260509022154 | 60 | 202 | 0.0 | 0.0 | 0.00 | 0.00 | 0.00 | 55 | 1013.3 |
| 20260509021622 | 61 | 202 | 0.0 | 0.0 | 0.00 | 0.00 | 0.00 | 52 | 1013.3 |
| 20260509021151 | 61 | 202 | 0.0 | 0.0 | 0.00 | 0.00 | 0.00 | 49 | 1013.3 |
| 20260509020619 | 61 | 216 | 0.0 | 0.0 | 0.00 | 0.00 | 0.00 | 48 | 1013.3 |
| 20260509020124 | 62 | 208 | 0.0 | 2.0 | 0.00 | 0.00 | 0.00 | 48 | 1013.2 |
| 20260509015633 | 62 | 211 | 0.0 | 2.0 | 0.00 | 0.00 | 0.00 | 48 | 1013.2 |
| 20260509015121 | 62 | 197 | 0.0 | 0.0 | 0.00 | 0.00 | 0.00 | 48 | 1013.2 |
| 20260509014629 | 62 | 201 | 0.0 | 0.0 | 0.00 | 0.00 | 0.00 | 47 | 1013.2 |
| 20260509014117 | 62 | 214 | 0.0 | 0.0 | 0.00 | 0.00 | 0.00 | 49 | 1013.1 |
| 20260509013645 | 62 | 165 | 0.0 | 0.0 | 0.00 | 0.00 | 0.00 | 49 | 1013.1 |
| 20260509013134 | 62 | 165 | 0.0 | 0.0 | 0.00 | 0.00 | 0.00 | 50 | 1013.0 |
| 20260509012640 | 62 | 165 | 0.0 | 0.0 | 0.00 | 0.00 | 0.00 | 51 | 1013.1 |
| 20260509012127 | 62 | 165 | 0.0 | 0.0 | 0.00 | 0.00 | 0.00 | 47 | 1013.2 |
| 20260509011615 | 62 | 165 | 0.0 | 0.0 | 0.00 | 0.00 | 0.00 | 49 | 1013.2 |
| 20260509011123 | 62 | 165 | 0.0 | 0.0 | 0.00 | 0.00 | 0.00 | 49 | 1013.1 |
| 20260509010631 | 62 | 165 | 0.0 | 0.0 | 0.00 | 0.00 | 0.00 | 48 | 1013.0 |
| 20260509010121 | 63 | 165 | 0.0 | 0.0 | 0.00 | 0.00 | 0.00 | 49 | 1013.0 |
| 20260509005650 | 63 | 165 | 0.0 | 0.0 | 0.00 | 0.00 | 0.00 | 48 | 1012.9 |
| 20260509005117 | 63 | 165 | 0.0 | 0.0 | 0.00 | 0.00 | 0.00 | 49 | 1012.9 |
| 20260509004626 | 63 | 165 | 0.0 | 0.0 | 0.00 | 0.00 | 0.00 | 51 | 1012.9 |
| 20260509004116 | 63 | 165 | 0.0 | 0.0 | 0.00 | 0.00 | 0.00 | 47 | 1012.9 |
| 20260509003620 | 64 | 165 | 0.0 | 0.0 | 0.00 | 0.00 | 0.00 | 45 | 1012.7 |
| 20260509003129 | 64 | 165 | 0.0 | 0.0 | 0.00 | 0.00 | 0.00 | 43 | 1012.8 |
| 20260509002618 | 64 | 165 | 0.0 | 0.0 | 0.00 | 0.00 | 0.00 | 42 | 1012.7 |
| 20260509002127 | 64 | 165 | 0.0 | 0.0 | 0.00 | 0.00 | 0.00 | 44 | 1012.7 |
| 20260509001616 | 64 | 165 | 0.0 | 0.0 | 0.00 | 0.00 | 0.00 | 44 | 1012.6 |
| 20260509001124 | 64 | 165 | 0.0 | 0.0 | 0.00 | 0.00 | 0.00 | 41 | 1012.6 |
| 20260509000633 | 64 | 165 | 0.0 | 0.0 | 0.00 | 0.00 | 0.00 | 43 | 1012.4 |
| 20260509000122 | 64 | 165 | 0.0 | 0.0 | 0.00 | 0.00 | 0.00 | 43 | 1012.4 |
| 20260508235651 | 64 | 165 | 0.0 | 0.0 | 0.00 | 0.00 | 0.00 | 44 | 1012.4 |
| 20260508235118 | 64 | 165 | 0.0 | 0.0 | 0.00 | 0.00 | 0.00 | 47 | 1012.3 |
| 20260508234627 | 64 | 165 | 0.0 | 0.0 | 0.00 | 0.00 | 0.00 | 41 | 1012.1 |
| 20260508234117 | 65 | 165 | 0.0 | 0.0 | 0.00 | 0.00 | 0.00 | 45 | 1012.2 |
| 20260508233627 | 65 | 290 | 0.0 | 0.0 | 0.00 | 0.00 | 0.00 | 40 | 1012.1 |
| 20260508233114 | 66 | 290 | 0.0 | 0.0 | 0.00 | 0.00 | 0.00 | 42 | 1012.1 |
| 20260508232622 | 66 | 290 | 0.0 | 0.0 | 0.00 | 0.00 | 0.00 | 41 | 1012.1 |
| 20260508232130 | 66 | 290 | 0.0 | 0.0 | 0.00 | 0.00 | 0.00 | 40 | 1012.1 |
| 20260508231620 | 66 | 290 | 0.0 | 2.0 | 0.00 | 0.00 | 0.00 | 40 | 1012.1 |
| 20260508231129 | 67 | 290 | 0.0 | 2.0 | 0.00 | 0.00 | 0.00 | 39 | 1012.1 |
| 20260508230618 | 67 | 292 | 0.0 | 3.0 | 0.00 | 0.00 | 0.00 | 36 | 1012.0 |
| 20260508230126 | 67 | 302 | 1.0 | 5.0 | 0.00 | 0.00 | 0.00 | 35 | 1012.0 |
| 20260508225616 | 67 | 295 | 2.0 | 5.0 | 0.00 | 0.00 | 0.00 | 35 | 1012.7 |
| 20260508225140 | 67 | 296 | 2.0 | 4.0 | 0.00 | 0.00 | 0.00 | 35 | 1012.1 |
| 20260508224627 | 67 | 314 | 1.0 | 3.0 | 0.00 | 0.00 | 0.00 | 35 | 1012.0 |
| 20260508224114 | 67 | 270 | 1.0 | 3.0 | 0.00 | 0.00 | 0.00 | 37 | 1012.0 |
| 20260508223644 | 68 | 284 | 1.0 | 3.0 | 0.00 | 0.00 | 0.00 | 36 | 1011.9 |
| 20260508223133 | 68 | 276 | 1.0 | 3.0 | 0.00 | 0.00 | 0.00 | 35 | 1011.8 |
| 20260508222621 | 68 | 293 | 1.0 | 5.0 | 0.00 | 0.00 | 0.00 | 36 | 1011.8 |
| 20260508222130 | 68 | 330 | 1.0 | 5.0 | 0.00 | 0.00 | 0.00 | 33 | 1011.9 |
| 20260508221618 | 68 | 301 | 2.0 | 6.0 | 0.00 | 0.00 | 0.00 | 34 | 1012.1 |
| 20260508221127 | 68 | 230 | 2.0 | 6.0 | 0.00 | 0.00 | 0.00 | 33 | 1012.1 |
| 20260508220617 | 68 | 291 | 1.0 | 4.0 | 0.00 | 0.00 | 0.00 | 35 | 1012.1 |
| 20260508220125 | 68 | 244 | 0.0 | 2.0 | 0.00 | 0.00 | 0.00 | 35 | 1012.1 |
| 20260508215632 | 68 | 326 | 0.0 | 3.0 | 0.00 | 0.00 | 0.00 | 34 | 1012.1 |
| 20260508215121 | 69 | 288 | 0.0 | 8.0 | 0.00 | 0.00 | 0.00 | 33 | 1012.0 |
| 20260508214628 | 69 | 283 | 2.0 | 8.0 | 0.00 | 0.00 | 0.00 | 31 | 1012.0 |
| 20260508214116 | 69 | 282 | 3.0 | 8.0 | 0.00 | 0.00 | 0.00 | 31 | 1012.0 |
| 20260508213619 | 69 | 273 | 3.0 | 9.0 | 0.00 | 0.00 | 0.00 | 32 | 1011.9 |
| 20260508213149 | 69 | 291 | 3.0 | 11.0 | 0.00 | 0.00 | 0.00 | 31 | 1012.0 |
| 20260508212637 | 69 | 282 | 5.0 | 12.0 | 0.00 | 0.00 | 0.00 | 31 | 1012.0 |
| 20260508212124 | 70 | 311 | 5.0 | 17.0 | 0.00 | 0.00 | 0.00 | 30 | 1012.0 |
| 20260508211633 | 70 | 293 | 7.0 | 17.0 | 0.00 | 0.00 | 0.00 | 29 | 1012.0 |
| 20260508211122 | 71 | 202 | 4.0 | 10.0 | 0.00 | 0.00 | 0.00 | 31 | 1012.0 |
| 20260508210630 | 71 | 176 | 4.0 | 10.0 | 0.00 | 0.00 | 0.00 | 33 | 1011.9 |
| 20260508210120 | 70 | 307 | 4.0 | 17.0 | 0.00 | 0.00 | 0.00 | 31 | 1011.9 |
| 20260508205649 | 71 | 239 | 8.0 | 17.0 | 0.00 | 0.00 | 0.00 | 29 | 1012.0 |
| 20260508205116 | 70 | 334 | 5.0 | 12.0 | 0.00 | 0.00 | 0.00 | 31 | 1012.0 |
| 20260508204626 | 71 | 353 | 1.0 | 6.0 | 0.00 | 0.00 | 0.00 | 31 | 1011.9 |
| 20260508204115 | 71 | 328 | 2.0 | 10.0 | 0.00 | 0.00 | 0.00 | 30 | 1012.0 |
| 20260508203625 | 71 | 303 | 3.0 | 10.0 | 0.00 | 0.00 | 0.00 | 32 | 1012.1 |
| 20260508203114 | 71 | 313 | 5.0 | 9.0 | 0.00 | 0.00 | 0.00 | 30 | 1012.1 |
| 20260508202622 | 71 | 45 | 3.0 | 9.0 | 0.00 | 0.00 | 0.00 | 34 | 1012.1 |
| 20260508202132 | 69 | 310 | 3.0 | 13.0 | 0.00 | 0.00 | 0.00 | 32 | 1012.2 |
| 20260508201621 | 68 | 41 | 3.0 | 13.0 | 0.00 | 0.00 | 0.00 | 32 | 1012.3 |
| 20260508201126 | 68 | 297 | 4.0 | 10.0 | 0.00 | 0.00 | 0.00 | 32 | 1012.5 |
| 20260508200613 | 68 | 294 | 3.0 | 10.0 | 0.00 | 0.00 | 0.00 | 31 | 1012.5 |
| 20260508200122 | 68 | 308 | 4.0 | 10.0 | 0.00 | 0.00 | 0.00 | 30 | 1012.4 |
| 20260508195631 | 68 | 251 | 2.0 | 11.0 | 0.00 | 0.00 | 0.00 | 32 | 1012.6 |
| 20260508195119 | 69 | 320 | 3.0 | 13.0 | 0.00 | 0.00 | 0.00 | 30 | 1012.5 |
| 20260508194628 | 69 | 321 | 4.0 | 15.0 | 0.00 | 0.00 | 0.00 | 30 | 1012.6 |
| 20260508194116 | 70 | 322 | 7.0 | 15.0 | 0.00 | 0.00 | 0.00 | 31 | 1012.8 |
| 20260508193625 | 69 | 296 | 3.0 | 12.0 | 0.00 | 0.00 | 0.00 | 32 | 1012.8 |
| 20260508193113 | 69 | 351 | 7.0 | 12.0 | 0.00 | 0.00 | 0.00 | 31 | 1012.9 |
| 20260508192622 | 69 | 270 | 3.0 | 11.0 | 0.00 | 0.00 | 0.00 | 31 | 1012.8 |
| 20260508192130 | 69 | 303 | 3.0 | 11.0 | 0.00 | 0.00 | 0.00 | 32 | 1013.0 |
| 20260508191620 | 68 | 310 | 3.0 | 13.0 | 0.00 | 0.00 | 0.00 | 32 | 1013.1 |
| 20260508191128 | 69 | 317 | 6.0 | 13.0 | 0.00 | 0.00 | 0.00 | 31 | 1013.2 |
| 20260508190617 | 70 | 295 | 3.0 | 8.0 | 0.00 | 0.00 | 0.00 | 35 | 1013.2 |
| 20260508190126 | 69 | 315 | 2.0 | 12.0 | 0.00 | 0.00 | 0.00 | 31 | 1013.2 |
| 20260508185615 | 69 | 336 | 5.0 | 16.0 | 0.00 | 0.00 | 0.00 | 31 | 1013.2 |
| 20260508185123 | 70 | 287 | 6.0 | 16.0 | 0.00 | 0.00 | 0.00 | 30 | 1013.3 |
| 20260508184633 | 71 | 299 | 4.0 | 16.0 | 0.00 | 0.00 | 0.00 | 31 | 1013.3 |
| 20260508184122 | 71 | 310 | 7.0 | 16.0 | 0.00 | 0.00 | 0.00 | 29 | 1013.2 |
| 20260508183630 | 71 | 297 | 4.0 | 12.0 | 0.00 | 0.00 | 0.00 | 33 | 1013.2 |
| 20260508183117 | 70 | 276 | 5.0 | 13.0 | 0.00 | 0.00 | 0.00 | 33 | 1013.3 |
| 20260508182622 | 70 | 291 | 3.0 | 12.0 | 0.00 | 0.00 | 0.00 | 33 | 1013.3 |
| 20260508182130 | 70 | 332 | 2.0 | 13.0 | 0.00 | 0.00 | 0.00 | 33 | 1013.4 |
| 20260508181620 | 69 | 307 | 5.0 | 13.0 | 0.00 | 0.00 | 0.00 | 32 | 1013.5 |
| 20260508181129 | 70 | 299 | 5.0 | 11.0 | 0.00 | 0.00 | 0.00 | 34 | 1013.6 |
| 20260508180617 | 69 | 324 | 5.0 | 11.0 | 0.00 | 0.00 | 0.00 | 32 | 1013.6 |
| 20260508180127 | 70 | 356 | 5.0 | 12.0 | 0.00 | 0.00 | 0.00 | 33 | 1013.6 |
| 20260508175617 | 71 | 307 | 4.0 | 12.0 | 0.00 | 0.00 | 0.00 | 30 | 1013.7 |
| 20260508175125 | 70 | 355 | 5.0 | 12.0 | 0.00 | 0.00 | 0.00 | 32 | 1013.5 |
| 20260508174614 | 71 | 300 | 3.0 | 11.0 | 0.00 | 0.00 | 0.00 | 35 | 1013.5 |
| 20260508174123 | 71 | 297 | 5.0 | 10.0 | 0.00 | 0.00 | 0.00 | 33 | 1013.7 |
| 20260508173632 | 69 | 290 | 3.0 | 16.0 | 0.00 | 0.00 | 0.00 | 34 | 1013.7 |
| 20260508173120 | 69 | 309 | 9.0 | 16.0 | 0.00 | 0.00 | 0.00 | 32 | 1014.0 |
| 20260508172629 | 70 | 294 | 7.0 | 14.0 | 0.00 | 0.00 | 0.00 | 34 | 1014.0 |
| 20260508172118 | 70 | 20 | 4.0 | 14.0 | 0.00 | 0.00 | 0.00 | 34 | 1014.0 |
| 20260508171647 | 70 | 266 | 6.0 | 12.0 | 0.00 | 0.00 | 0.00 | 35 | 1014.0 |
| 20260508171113 | 69 | 297 | 3.0 | 8.0 | 0.00 | 0.00 | 0.00 | 37 | 1014.1 |
| 20260508170643 | 70 | 2 | 3.0 | 12.0 | 0.00 | 0.00 | 0.00 | 34 | 1014.1 |
| 20260508170126 | 69 | 299 | 5.0 | 12.0 | 0.00 | 0.00 | 0.00 | 32 | 1014.1 |
| 20260508165614 | 69 | 273 | 5.0 | 12.0 | 0.00 | 0.00 | 0.00 | 37 | 1014.2 |
| 20260508165123 | 69 | 350 | 4.0 | 14.0 | 0.00 | 0.00 | 0.00 | 33 | 1014.2 |
| 20260508164633 | 69 | 317 | 4.0 | 16.0 | 0.00 | 0.00 | 0.00 | 32 | 1014.3 |
| 20260508164140 | 69 | 310 | 4.0 | 16.0 | 0.00 | 0.00 | 0.00 | 34 | 1014.4 |
| 20260508163648 | 69 | 317 | 8.0 | 14.0 | 0.00 | 0.00 | 0.00 | 32 | 1014.5 |
| 20260508163117 | 69 | 165 | 4.0 | 12.0 | 0.00 | 0.00 | 0.00 | 35 | 1014.5 |
| 20260508162626 | 69 | 165 | 3.0 | 12.0 | 0.00 | 0.00 | 0.00 | 35 | 1014.7 |
| 20260508162114 | 69 | 232 | 5.0 | 12.0 | 0.00 | 0.00 | 0.00 | 35 | 1014.7 |
| 20260508161642 | 69 | 165 | 5.0 | 13.0 | 0.00 | 0.00 | 0.00 | 33 | 1014.8 |
| 20260508161130 | 69 | 165 | 4.0 | 13.0 | 0.00 | 0.00 | 0.00 | 37 | 1014.9 |
| 20260508160617 | 68 | 165 | 2.0 | 10.0 | 0.00 | 0.00 | 0.00 | 38 | 1014.7 |
| 20260508160126 | 68 | 165 | 4.0 | 8.0 | 0.00 | 0.00 | 0.00 | 36 | 1014.8 |
| 20260508155616 | 68 | 336 | 3.0 | 12.0 | 0.00 | 0.00 | 0.00 | 37 | 1014.8 |
| 20260508155124 | 68 | 116 | 4.0 | 12.0 | 0.00 | 0.00 | 0.00 | 37 | 1015.0 |
| 20260508154614 | 67 | 165 | 4.0 | 12.0 | 0.00 | 0.00 | 0.00 | 41 | 1015.1 |
| 20260508154123 | 67 | 165 | 1.0 | 15.0 | 0.00 | 0.00 | 0.00 | 39 | 1015.1 |
| 20260508153628 | 67 | 165 | 6.0 | 15.0 | 0.00 | 0.00 | 0.00 | 37 | 1015.3 |
| 20260508153117 | 66 | 165 | 5.0 | 15.0 | 0.00 | 0.00 | 0.00 | 38 | 1015.3 |
| 20260508152626 | 67 | 299 | 6.0 | 15.0 | 0.00 | 0.00 | 0.00 | 38 | 1015.4 |
| 20260508152116 | 66 | 290 | 3.0 | 11.0 | 0.00 | 0.00 | 0.00 | 36 | 1015.4 |